When you browse on this site, cookies collect data to enhance your experience and personalize the content and advertising you see.
Visit our Privacy Policy to learn more. By continuing to use the site, you agree to this use of cookies and data.
  • In United Kingdom
  • List of Countries
  • For 7 days
  • Water Temperature
  • Satellite Maps
  • Weather Map
  • Weather Widgets
  • user-avatar
    Login

    Hourly Weather Yangikishlak

    Today, 24 January, Thursday

    Time Temperature Precipitation Wind Pressure Humidity
    00:00 +1°C° 0 mm 1 mps 690 mmHg 49%
    01:00 +1°C° 0 mm 1 mps 690 mmHg 49%
    02:00 +1°C° 0 mm 1 mps 690 mmHg 51%
    03:00 +1°C° 0 mm 1 mps 691 mmHg 52%
    04:00 0°C° 0 mm 1 mps 691 mmHg 53%
    05:00 0°C° 0 mm 1 mps 691 mmHg 54%
    06:00 0°C° 0 mm 1 mps 692 mmHg 55%
    07:00 0°C° 0 mm 1 mps 692 mmHg 56%
    08:00 +2°C° 0 mm 1 mps 692 mmHg 51%
    09:00 +3°C° 0 mm 1 mps 693 mmHg 46%
    10:00 +4°C° 0 mm 2 mps 693 mmHg 41%
    11:00 +5°C° 0 mm 2 mps 693 mmHg 39%
    12:00 +5°C° 0 mm 2 mps 693 mmHg 37%
    13:00 +6°C° 0 mm 2 mps 692 mmHg 36%
    14:00 +5°C° 0 mm 2 mps 692 mmHg 39%
    15:00 +6°C° 0 mm 1 mps 692 mmHg 42%
    16:00 +5°C° 0 mm 1 mps 692 mmHg 45%
    17:00 +4°C° 0 mm 1 mps 693 mmHg 47%
    18:00 +2°C° 0 mm 0 mps 693 mmHg 49%
    19:00 +1°C° 0 mm 0 mps 693 mmHg 50%
    20:00 +1°C° 0 mm 0 mps 693 mmHg 50%
    21:00 +2°C° 0 mm 1 mps 693 mmHg 51%
    22:00 +2°C° 0 mm 1 mps 693 mmHg 51%
    23:00 +2°C° 0 mm 1 mps 692 mmHg 51%

    Tomorrow, 25 January, Friday

    Time Temperature Precipitation Wind Pressure Humidity
    00:00 +1°C° 0 mm 1 mps 692 mmHg 51%
    01:00 +1°C° 0 mm 1 mps 692 mmHg 51%
    02:00 +1°C° 0 mm 1 mps 692 mmHg 52%
    03:00 +1°C° 0 mm 1 mps 691 mmHg 52%
    04:00 +1°C° 0 mm 1 mps 691 mmHg 53%
    05:00 +1°C° 0 mm 1 mps 691 mmHg 54%
    06:00 0°C° 0 mm 1 mps 691 mmHg 54%
    07:00 -2°C° 0 mm 2 mps 691 mmHg 54%
    08:00 +1°C° 0 mm 2 mps 691 mmHg 47%
    09:00 +2°C° 0 mm 3 mps 691 mmHg 40%
    10:00 +3°C° 0 mm 3 mps 691 mmHg 33%
    11:00 +4°C° 0 mm 4 mps 691 mmHg 32%
    12:00 +4°C° 0 mm 4 mps 690 mmHg 30%
    13:00 +5°C° 0 mm 4 mps 690 mmHg 29%
    14:00 +4°C° 0 mm 4 mps 689 mmHg 32%
    15:00 +4°C° 0 mm 4 mps 689 mmHg 34%
    16:00 +3°C° 0 mm 3 mps 689 mmHg 37%
    17:00 +2°C° 0 mm 3 mps 689 mmHg 40%
    18:00 +1°C° 0 mm 3 mps 689 mmHg 43%
    19:00 0°C° 0 mm 3 mps 689 mmHg 46%
    20:00 +1°C° 0 mm 2 mps 689 mmHg 46%
    21:00 -1°C° 0 mm 2 mps 689 mmHg 47%
    22:00 -1°C° 0 mm 2 mps 688 mmHg 47%
    23:00 -1°C° 0 mm 2 mps 688 mmHg 46%

    Day after tomorrow, 26 January, Saturday

    Time Temperature Precipitation Wind Pressure Humidity
    00:00 +1°C° 0 mm 1 mps 688 mmHg 46%
    01:00 +1°C° 0 mm 1 mps 688 mmHg 45%
    02:00 +1°C° 0 mm 1 mps 688 mmHg 44%
    03:00 +1°C° 0 mm 1 mps 688 mmHg 42%
    04:00 +1°C° 0 mm 1 mps 688 mmHg 40%
    05:00 +1°C° 0 mm 1 mps 688 mmHg 39%
    06:00 +1°C° 0 mm 1 mps 688 mmHg 37%
    07:00 +1°C° 0 mm 1 mps 688 mmHg 36%
    08:00 +3°C° 0 mm 1 mps 688 mmHg 32%
    09:00 +5°C° 0 mm 1 mps 689 mmHg 27%
    10:00 +7°C° 0 mm 1 mps 689 mmHg 23%
    11:00 +8°C° 0 mm 1 mps 689 mmHg 21%
    12:00 +9°C° 0 mm 1 mps 689 mmHg 19%
    13:00 +10°C° 0 mm 1 mps 689 mmHg 18%
    14:00 +9°C° 0 mm 1 mps 689 mmHg 21%
    15:00 +7°C° 0 mm 2 mps 688 mmHg 24%
    16:00 +7°C° 0 mm 2 mps 688 mmHg 27%
    17:00 +6°C° 0 mm 2 mps 688 mmHg 28%
    18:00 +5°C° 0 mm 2 mps 689 mmHg 29%
    19:00 +4°C° 0 mm 2 mps 689 mmHg 31%
    20:00 +4°C° 0 mm 2 mps 689 mmHg 31%
    21:00 +4°C° 0 mm 2 mps 689 mmHg 31%
    22:00 +5°C° 0 mm 1 mps 689 mmHg 31%
    23:00 +5°C° 0 mm 1 mps 689 mmHg 31%

    27 January, Sunday

    Time Temperature Precipitation Wind Pressure Humidity
    00:00 +4°C° 0 mm 1 mps 689 mmHg 31%
    01:00 +4°C° 0 mm 1 mps 689 mmHg 30%
    02:00 +4°C° 0 mm 1 mps 689 mmHg 30%
    03:00 +4°C° 0 mm 1 mps 689 mmHg 30%
    04:00 +4°C° 0 mm 1 mps 689 mmHg 30%
    05:00 +4°C° 0 mm 1 mps 689 mmHg 31%
    06:00 +4°C° 0 mm 1 mps 690 mmHg 32%
    07:00 +4°C° 0 mm 1 mps 690 mmHg 33%
    08:00 +6°C° 0 mm 1 mps 690 mmHg 32%
    09:00 +6°C° 0 mm 2 mps 691 mmHg 31%
    10:00 +8°C° 0 mm 2 mps 691 mmHg 29%
    11:00 +9°C° 0 mm 2 mps 690 mmHg 29%
    12:00 +9°C° 0 mm 2 mps 690 mmHg 29%
    13:00 +10°C° 0 mm 2 mps 690 mmHg 29%
    14:00 +10°C° 0 mm 2 mps 690 mmHg 31%
    15:00 +9°C° 0 mm 2 mps 689 mmHg 33%
    16:00 +9°C° 0 mm 2 mps 689 mmHg 35%
    17:00 +8°C° 0 mm 2 mps 689 mmHg 35%
    18:00 +7°C° 0 mm 2 mps 689 mmHg 34%
    19:00 +6°C° 0 mm 2 mps 689 mmHg 34%
    20:00 +6°C° 0 mm 2 mps 689 mmHg 35%
    21:00 +6°C° 0 mm 2 mps 689 mmHg 35%
    22:00 +6°C° 0 mm 2 mps 689 mmHg 36%
    23:00 +6°C° 0 mm 2 mps 689 mmHg 37%

    28 January, Monday

    Time Temperature Precipitation Wind Pressure Humidity
    00:00 +6°C° 0 mm 2 mps 689 mmHg 39%
    01:00 +5°C° 0 mm 2 mps 688 mmHg 40%
    02:00 +5°C° 0 mm 2 mps 688 mmHg 41%
    03:00 +5°C° 0 mm 2 mps 688 mmHg 41%
    04:00 +5°C° 0 mm 2 mps 688 mmHg 41%
    05:00 +5°C° 0 mm 2 mps 688 mmHg 41%
    06:00 +5°C° 0 mm 2 mps 688 mmHg 41%
    07:00 +5°C° 0 mm 2 mps 688 mmHg 41%
    08:00 +7°C° 0 mm 2 mps 688 mmHg 37%
    09:00 +9°C° 0 mm 2 mps 688 mmHg 33%
    10:00 +10°C° 0 mm 2 mps 688 mmHg 29%
    11:00 +12°C° 0 mm 3 mps 688 mmHg 27%
    12:00 +13°C° 0 mm 4 mps 688 mmHg 25%
    13:00 +14°C° 0 mm 5 mps 688 mmHg 23%
    14:00 +13°C° 0 mm 4 mps 687 mmHg 25%
    15:00 +13°C° 0 mm 3 mps 687 mmHg 27%
    16:00 +13°C° 0 mm 2 mps 687 mmHg 29%
    17:00 +12°C° 0 mm 2 mps 686 mmHg 31%
    18:00 +12°C° 0 mm 2 mps 686 mmHg 32%
    19:00 +10°C° 0 mm 2 mps 686 mmHg 33%
    20:00 +9°C° 0 mm 2 mps 686 mmHg 35%
    21:00 +9°C° 0 mm 2 mps 686 mmHg 37%
    22:00 +8°C° 0 mm 2 mps 685 mmHg 39%
    23:00 +8°C° 0 mm 2 mps 685 mmHg 38%

    29 January, Tuesday

    Time Temperature Precipitation Wind Pressure Humidity
    00:00 +8°C° 0 mm 2 mps 685 mmHg 38%
    01:00 +7°C° 0 mm 2 mps 684 mmHg 37%
    02:00 +8°C° 0 mm 2 mps 684 mmHg 37%
    03:00 +8°C° 0 mm 2 mps 683 mmHg 37%
    04:00 +8°C° 0 mm 2 mps 683 mmHg 37%
    05:00 +8°C° 0 mm 2 mps 683 mmHg 38%
    06:00 +8°C° 0 mm 2 mps 683 mmHg 40%
    07:00 +8°C° 0 mm 2 mps 683 mmHg 41%
    08:00 +10°C° 0 mm 3 mps 683 mmHg 41%
    09:00 +11°C° 0 mm 3 mps 683 mmHg 41%
    10:00 +13°C° 0 mm 4 mps 683 mmHg 40%
    11:00 +14°C° 0 mm 5 mps 683 mmHg 40%
    12:00 +15°C° 0 mm 5 mps 683 mmHg 39%
    13:00 +16°C° 0 mm 6 mps 682 mmHg 38%
    14:00 +15°C° 0.1 mm 5 mps 682 mmHg 42%
    15:00 +14°C° 0.1 mm 3 mps 682 mmHg 46%
    16:00 +14°C° 0.1 mm 2 mps 681 mmHg 50%
    17:00 +12°C° 0.3 mm 3 mps 681 mmHg 55%
    18:00 +11°C° 0.3 mm 3 mps 681 mmHg 59%
    19:00 +10°C° 0.3 mm 3 mps 681 mmHg 64%
    20:00 +10°C° 0.5 mm 3 mps 681 mmHg 66%
    21:00 +8°C° 0.5 mm 4 mps 680 mmHg 67%
    22:00 +8°C° 0.5 mm 4 mps 680 mmHg 69%
    23:00 +7°C° 0 mm 4 mps 680 mmHg 68%
    Show more